OBJECT L, 65560

Orbit data source: Space-Track

You're viewing an Uncataloged Satellite

Recently launched and/or uncataloged satellites may have evolving metadata. Metadata may include but not limited to: Owner, Maufacturer, Bus, Motor, and Mission.

OBJECT L, 65560 is a satellite owned by GeeSpace (CN) in LEO that was launched on Mon, 08 Sep 2025 UTC via a JIELONG-3 launch vehicle from the Yellow Sea Launch Area, China (YSLA). Unknown objects in Earth's orbit typically refer to objects detected orbiting the Earth but have not yet been identified or cataloged. These objects could be anything from previously untracked satellites, spent rocket stages, debris from satellite collisions, or even natural meteoroids temporarily captured by Earth's gravity.

Loading next visibility...
Identifier
65560, 2025-201L
Orbit
LEO
Country
Flag of CNCN / PRC
Related business
Manufacturer
Taizhou Xingkong
Mission
Spacecraft
Bus & Motor
GEESAT1, Unknown motor
Mass
130 kg wet, 130 kg dry
Launch date (UTC)
2025-09-08 (1 week ago)
Launch vehicle
JIELONG-3
Launch site
Yellow Sea Launch Area, China (YSLA)
Object type
Unknown
Shape & HBR
Unknown
Radar Cross Section
Medium (>0.1 m² and <1 m²)

Expand to show TLE details & history
Last TLE update: 2 days ago

TLE from 2 days ago
0 OBJECT L
1 65560U 25201L   25258.56725109  .00003823  00000-0  38716-3 0  9993
2 65560  49.9848 233.5646 0012641 323.5718  36.4363 14.92934160  1025
Epoch: 2025-09-15T13:36Z
TLE epoch observation values (Epoch: 2025-09-15T13:36:50.494Z)
Latitude
Longitude
34.58416°
Altitude
582.256 km
Speed
7.574 km/s
True Right ascension
15h 34m 15s
True Declination
0° 00' 00"
Sunlit
Object was in daylight at epoch
Visualization orbit readout
Latitude
Unknown
Longitude
Unknown
Altitude
Unknown
Speed
Unknown
Apparent Right ascension
Unknown
Apparent Declination
Unknown
Sunlit
N/A
Visualization observer readout
Local Sidereal Time
00:43:09
Azimuth
Unknown
Elevation
Unknown
Doppler factor
Unknown
Orbital elements
Apogee altitude
598.364 km
Perigee altitude
580.748 km
Semi-major axis
6,967.693 km
Eccentricity
0.00126
Inclination
49.9848°
RAAN
233.5646°
Arg. of periapsis
323.5718°
True anomaly
36.52244°
Mean anomaly
36.4363°
Eccentric anomaly
36.47936°
Mean motion
3.73173 °/min
Orbital period
96.47 mins
BSTAR
0.00038716
Loading maneuver chart data...
Computing Atmospheric mass density...
Loading historical data...
Loading historical data...
Loading historical data...
Loading historical data...
Loading historical data...
Loading historical data...
Loading historical data...

Documentation

Showing up to 5 results
|